Location: McFarlands Corners
(41.4117°N, 81.3382°W)
Time: 02:34:24
(UTC+00:00)

Vanguard 3 - Visible Passes

Search period start: 12 November 2024 00:00
Search period end: 22 November 2024 00:00
Orbit: 508 x 3221 km, 33.3° (Epoch: 11 November)

Date Brightness Start Highest point End Pass type
(mag) Time Alt. Az. Time Alt. Az. Time Alt. Az.
12 Nov 9.5 23:54:36 10° W 00:00:50 22° SW 00:05:12 10° SSE visible
13 Nov 9.5 22:31:43 10° W 22:41:52 39° SSW 22:47:56 10° SE visible
14 Nov 9.7 23:25:31 10° W 23:32:59 24° SW 23:38:01 10° SSE visible
16 Nov 10.3 00:21:22 10° WSW 00:23:38 11° SW 00:25:38 10° SSW visible
16 Nov 9.9 22:56:12 10° W 23:04:58 26° SW 23:10:46 10° SSE visible
17 Nov 10.4 23:51:48 10° WSW 23:55:36 13° SW 23:58:45 10° SSW visible
18 Nov 10.2 22:26:41 10° W 22:36:48 28° SW 22:43:24 10° SSE visible
19 Nov 10.6 23:22:12 10° WSW 23:27:26 14° SW 23:31:35 10° SSW visible
21 Nov 12.1 11:49:41 10° SE 11:52:46 11° SE 11:55:56 10° ESE visible
21 Nov 10.8 22:52:30 10° W 22:59:06 16° SW 23:04:13 10° SSW visible
